Regional Weather Roundup
Issued by NWS

Home | Current Version | Previous Version | Graphics & Text | Print | Product List | Glossary Off
Versions: 1 2 3 4 5 6 7 8 9 10 11 12 13 14 15 16 17 18 19 20 21 22 23 24 25 26 27 28 29 30 31 32 33 34 35 36 37 38 39 40 41 42 43 44 45 46 47 48 49 50

000
ASUS43 KTOP 311008
RWRKS

WEATHER ROUNDUP FOR KANSAS
NATIONAL WEATHER SERVICE GOODLAND KS
500 AM CDT FRI OCT 31 2014

NOTE:  "FAIR" INDICATES FEW OR NO CLOUDS BELOW 12,000 FEET WITH NO
SIGNIFICANT WEATHER AND/OR OBSTRUCTIONS TO VISIBILITY.

KSZ001>006-013>018-027>032-041>047-311100-
NORTHWEST KANSAS

CITY           SKY/WX    TMP DP  RH WIND       PRES   REMARKS
GOODLAND       CLEAR     28  25  88 CALM      30.47S
HAYS           CLEAR     36  27  69 N13       30.46R WCI  27
HILL CITY      CLEAR     32  29  88 N7        30.48S
RUSSELL        PTCLDY    35  32  88 N17       30.44R WCI  25
$$

KSZ061>065-074>080-084>089-311100-
SOUTHWEST KANSAS

CITY           SKY/WX    TMP DP  RH WIND       PRES   REMARKS
DODGE CITY     CLEAR     36  31  82 N13       30.44R WCI  27
ELKHART          N/A     40  26  57 N5          N/A
GARDEN CITY    CLEAR     36  31  82 NE13      30.44S WCI  27
GREAT BEND     CLEAR     37  28  70 N14       30.45R WCI  29
LIBERAL        CLEAR     39  28  65 N7        30.44R
PRATT          CLEAR     37  34  87 N12       30.42S WCI  30
$$

KSZ066>073-081>083-090>101-311100-
SOUTHEAST KANSAS

CITY           SKY/WX    TMP DP  RH WIND       PRES   REMARKS
CHANUTE        MOCLDY    47  41  80 N14       30.30R
COFFEYVILLE    CLEAR     47  40  76 N15       30.29R
HUTCHINSON     CLOUDY    45  35  68 N13G22    30.40R
MEDICINE LODGE   N/A     40  35  83 N9        30.40R
NEWTON         CLOUDY    45  34  65 N16G23    30.39R
PARSONS        CLEAR     46  41  82 N14       30.30R
WICHITA INTL   CLOUDY    47  38  71 N15G25    30.36S
WICHITA JABRA  CLOUDY    46  38  73 N25G31    30.36R
WICHITA MCCONL CLOUDY    46  39  77 N21G28    30.36R
WINFIELD       CLEAR     43  38  82 N16       30.35R
$$

KSZ007>012-019>026-033>040-048>060-102>105-311100-
NORTHEAST KANSAS

CITY           SKY/WX    TMP DP  RH WIND       PRES   REMARKS
CONCORDIA      MOCLDY    36  28  73 N14G24    30.45R WCI  27
EMPORIA        CLOUDY    45  36  70 N16G26    30.36R
LAWRENCE       LGT RAIN  43  33  68 N18G35    30.37R
MANHATTAN      PTCLDY    41  32  70 N9G22     30.42R
MARYSVILLE     CLOUDY    37  28  70 N18G29    30.44R WCI  27
OLATHE IND     CLOUDY    45  35  68 N24G35    30.33R
OLATHE EXE     CLOUDY    46  36  68 N18G28    30.31R
SALINA         CLEAR     41  33  73 N16       30.43R
TOPEKA BILLARD CLOUDY    41  30  65 N20G30    30.41R
TOPEKA FORBES  CLOUDY    41  30  65 N22G36    30.38R
$$



USA.gov is the U.S. government's official web portal to all federal, state and local government web resources and services.